Flag for Azerbaijan Weather past 2 weeks in Ganja, Azerbaijan

Now
37 °F

Light rain. Overcast.


Feels Like: 37 °F
Forecast: 38 / 53 °F
Wind: No wind

Location: Gyanca Airport

Current Time: Mar 30, 2015 at 10:00:42 PM

Latest Report: Mar 30, 2015 at 9:30 PM


Visibility: N/A

Pressure: 29.86 "Hg

Humidity: 93%

Dew point: 36 °F

Location of GanjaLocation

Historic Weather in Ganja — Graph

°F

Ganja temperature yesterday

Maximum temperature yesterday: 55 °F (at 5:30 PM)
Minimum temperature yesterday: 45 °F (at 10:30 PM)
Average temperature yesterday: 51 °F

Past Weeks' High & Low Weather Summary

 TemperatureHumidityPressure
High64 °F (Mar 27, 3:00 PM)100% (Mar 18, 4:30 AM)30.42 "Hg (Mar 18, 4:30 AM)
Low36 °F (Mar 17, 7:30 AM)33% (Mar 24, 2:00 PM)29.83 "Hg (Mar 21, 3:00 PM)
Average46 °F80%30.13 "Hg
* Reported Mar 15 8:00 PM — Mar 30 9:00 PM, Ganja, Weather by CustomWeather, © 2015

Note: Actual official high and low records may vary slightly from our data, if they occured in-between our weather recording intervals... More about our weather records

Advertising

Ganja weather history for previous 24 hours

 ConditionsComfort  
Time TempWeatherWind HumidityBarometerVisibility
9:00 PM
Mon, Mar 30
37 °FLight rain. Overcast.6 mph93%29.89 "HgN/A
8:30 PM37 °FLight rain. Low clouds.10 mph100%29.89 "HgN/A
8:00 PM39 °FLow clouds.10 mph93%29.89 "HgN/A
7:30 PM39 °FOvercast.14 mph93%29.92 "HgN/A
7:00 PM39 °FOvercast.13 mph93%29.89 "HgN/A
6:30 PM39 °FOvercast.10 mph93%29.89 "HgN/A
6:00 PM41 °FOvercast.7 mph87%29.92 "HgN/A
5:30 PM41 °FOvercast.7 mph87%29.89 "HgN/A
5:00 PM41 °FOvercast.9 mph87%29.92 "HgN/A
4:30 PM41 °FOvercast.10 mph87%29.92 "HgN/A
4:00 PM41 °FOvercast.12 mph87%29.92 "HgN/A
3:30 PM41 °FOvercast.12 mph87%29.95 "HgN/A
3:00 PM41 °FOvercast.9 mph87%29.95 "HgN/A
2:30 PM41 °FOvercast.13 mph87%29.95 "HgN/A
2:00 PM41 °FOvercast.8 mph87%29.98 "HgN/A
1:30 PM41 °FOvercast.13 mph87%29.98 "HgN/A
1:00 PM39 °FOvercast.16 mph87%29.98 "HgN/A
12:30 PM39 °FOvercast.22 mph87%29.98 "HgN/A
12:00 PM39 °FOvercast.25 mph93%29.98 "HgN/A
11:30 AM39 °FOvercast.23 mph93%29.98 "HgN/A
11:00 AM39 °FLight rain. Overcast.18 mph93%29.98 "HgN/A
10:30 AM37 °FLight rain. Overcast.22 mph100%30.01 "HgN/A
10:00 AM37 °FLight rain. Overcast.24 mph93%29.98 "HgN/A
9:30 AM37 °FOvercast.18 mph93%30.01 "HgN/A
9:00 AM37 °FLight rain. Overcast.23 mph93%30.01 "Hg4 mi
8:30 AM37 °FRain. Overcast.23 mph100%30.01 "Hg4 mi
8:00 AM37 °FLight rain. Overcast.23 mph100%29.98 "HgN/A
7:30 AM39 °FLight rain. Overcast.25 mph93%30.01 "HgN/A
7:00 AM39 °FLight rain. Overcast.24 mph87%29.98 "HgN/A
6:30 AM39 °FLight rain. Overcast.21 mph93%30.01 "HgN/A
6:00 AM39 °FPassing clouds.24 mph87%30.01 "HgN/A
5:30 AM41 °FPassing clouds.25 mph81%30.01 "HgN/A
5:00 AM41 °FPassing clouds.25 mph81%30.01 "HgN/A
4:00 AM41 °FPassing clouds.26 mph87%30.04 "HgN/A
3:30 AM41 °FPassing clouds.29 mph87%30.04 "HgN/A
3:00 AM41 °FPassing clouds.28 mph87%30.07 "HgN/A
2:30 AM41 °FPassing clouds.28 mph87%30.07 "HgN/A
2:00 AM41 °FPassing clouds.22 mph87%30.09 "HgN/A
1:30 AM41 °FPassing clouds.22 mph87%30.09 "HgN/A
1:00 AM43 °FPassing clouds.22 mph87%30.09 "HgN/A
12:30 AM43 °FPassing clouds.22 mph87%30.09 "HgN/A
12:00 AM43 °FPassing clouds.21 mph87%30.09 "HgN/A
11:30 PM
Sun, Mar 29
45 °FPassing clouds.21 mph87%30.09 "HgN/A
11:00 PM45 °FPassing clouds.20 mph87%30.09 "HgN/A
10:30 PM45 °FPassing clouds.21 mph93%30.09 "HgN/A
10:00 PM46 °FPartly sunny.18 mph87%30.09 "HgN/A
Weather by CustomWeather, © 2015

See weather overviewHow to use our weather pages